Theta_e
319 319 319 319 318 319 319 315 326 324 321 316 310 315 316 317 319 320 320 320 320 323 323 323 321 321 319 320 317 319 315 316 320 319 318 319 321 321 321 324 324 331 345 342
319 319 319 319 317 315 315 315 317 323 321 321 317 316 319 320 321 320 321 322 322 321 322 323 322 326 326 326 319 319 316 316 319 319 317 319 323 322 319 318 320 332 340 337
319 318 318 318 317 315 315 316 328 323 315 314 319 323 326 323 322 322 321 320 321 321 321 321 326 335 334 332 330 339 323 312 318 322 319 321 327 330 322 320 323 325 331 333
318 317 318 317 316 317 316 316 328 326 328 326 326 327 327 330 331 327 327 326 329 321 321 321 332 336 334 333 334 318 316 318 315 317 319 324 325 327 328 326 324 329 328 334
317 317 316 316 316 317 318 324 326 323 324 323 324 324 331 334 333 333 332 330 332 327 335 332 331 334 332 335 331 328 318 316 318 321 322 324 327 329 333 331 329 327 330 335
317 317 315 315 316 317 316 319 322 322 323 325 327 326 330 331 330 329 330 332 330 333 334 333 334 329 327 330 332 331 321 314 317 322 320 322 321 338 339 338 339 333 334 332
317 316 314 314 314 314 314 317 319 324 326 328 330 330 330 331 331 331 331 332 332 331 326 331 329 330 333 333 331 327 329 316 315 319 320 323 321 335 336 340 340 339 336 335
315 315 313 313 313 314 314 315 318 322 327 327 328 330 330 327 325 330 335 333 331 326 332 335 333 335 334 336 336 331 329 323 333 320 319 326 337 337 339 337 340 339 340 338
314 314 313 313 313 313 315 317 318 318 325 323 328 329 328 327 327 329 333 329 324 329 329 334 337 340 344 344 337 331 331 329 333 337 332 337 339 336 335 335 341 336 341 342
313 313 312 313 313 312 313 316 319 321 325 323 325 326 326 326 327 331 329 329 331 331 332 340 341 342 343 342 342 339 336 337 337 338 339 340 336 339 336 334 336 334 338 339
310 310 311 311 312 311 312 316 316 319 321 320 324 325 325 325 325 329 328 328 328 336 339 339 338 338 338 342 338 340 336 341 341 339 341 342 341 338 340 336 336 336 336 339
309 310 310 309 309 309 309 314 314 316 316 320 323 324 324 325 323 322 322 330 330 334 335 335 335 339 336 334 338 337 339 338 342 339 343 337 340 339 339 337 337 338 337 335
307 307 307 307 307 305 305 306 310 314 315 318 318 323 325 324 323 323 323 322 329 331 326 330 331 334 335 339 338 337 337 337 339 339 336 336 334 333 338 339 340 338 336 338
302 303 304 304 304 303 302 303 308 307 312 320 321 323 322 322 323 324 322 324 330 328 328 331 333 336 333 334 333 333 332 336 337 339 337 337 336 333 339 340 340 340 337 340
302 301 302 301 301 303 303 308 312 309 315 320 319 319 324 326 325 324 323 322 328 330 333 334 335 333 334 332 330 331 331 333 335 336 335 337 338 334 337 340 339 340 338 337
301 301 301 301 300 301 306 317 316 314 313 317 322 319 322 326 322 323 321 318 320 327 332 335 336 333 333 336 334 330 330 331 332 334 331 330 331 333 334 336 338 339 338 337
301 301 301 300 301 302 305 316 317 315 313 319 324 325 324 326 320 315 317 318 319 323 328 334 336 335 330 329 332 328 331 333 334 329 329 332 332 332 330 331 336 336 338 338
301 301 301 301 303 303 306 317 314 311 309 315 325 327 326 324 319 321 315 320 321 323 328 328 332 330 330 333 331 330 331 331 333 328 329 328 329 330 330 332 333 335 337 336
300 301 303 304 305 307 316 318 320 313 318 323 324 330 333 324 323 319 320 321 327 321 326 328 330 333 340 337 333 331 331 332 331 331 332 331 331 330 330 331 333 332 333 333
305 304 307 310 312 317 317 318 317 315 314 314 320 320 329 325 323 326 326 321 323 328 323 324 336 341 335 332 329 330 332 332 332 333 335 333 334 333 332 332 331 331 332 331
307 307 312 314 316 318 318 323 324 321 324 319 319 321 326 321 326 328 328 329 327 331 329 327 334 336 334 330 329 329 329 330 331 331 331 330 331 332 332 332 331 331 331 329
303 304 306 310 316 320 326 327 325 326 329 324 326 325 322 322 324 329 327 329 325 334 328 333 336 338 330 326 329 329 328 330 330 330 332 332 332 332 331 331 330 330 329 329
308 309 316 322 322 326 330 331 330 328 325 326 327 326 323 323 326 328 329 330 332 328 330 331 333 333 328 327 329 329 328 328 328 327 326 327 327 329 331 330 329 329 328 327
311 318 317 325 324 324 326 328 327 325 328 332 328 326 325 324 326 327 330 328 330 333 335 334 333 329 326 323 325 330 330 329 328 326 324 323 323 324 326 327 327 326 325 328
313 316 319 323 323 321 324 326 328 328 327 330 328 328 327 329 329 328 330 334 335 333 333 332 327 325 327 325 328 327 326 325 325 324 324 323 323 323 322 322 322 322 322 321
311 314 318 320 322 326 325 328 328 324 325 325 326 328 330 332 331 334 335 333 334 331 334 326 325 325 325 325 326 324 324 323 323 322 322 322 321 320 316 312 311 311 310 309
315 318 316 317 320 322 325 325 327 325 328 328 328 331 333 329 333 335 332 334 331 333 330 327 322 323 322 323 325 326 326 319 316 315 315 315 314 311 308 307 307 308 305 304
Wind_Speed
15 17 20 22 28 33 18 5 2 3 17 4 2 3 5 4 5 2 6 3 7 2 2 3 4 6 7 8 9 10 9 6 7 12 4 1 4 7 8 5 6 0 4 6
14 15 18 20 23 25 10 2 3 5 4 2 1 4 5 5 4 4 4 4 4 1 4 1 5 3 6 6 8 10 8 2 3 10 7 4 3 4 4 3 4 7 6 6
11 13 16 19 20 22 7 1 2 3 3 1 4 2 5 4 4 5 5 5 3 2 3 1 3 2 3 5 3 4 10 5 8 10 9 4 3 3 5 6 4 5 6 4
9 12 15 18 19 21 4 1 0 3 2 1 3 1 2 4 5 3 4 3 4 3 1 3 1 3 5 4 9 4 4 9 6 7 2 4 6 4 4 6 5 6 7 10
8 12 15 16 17 15 2 1 2 4 2 3 4 2 2 3 5 1 3 5 6 10 5 2 2 5 6 3 6 5 3 2 6 3 3 2 4 4 2 4 3 7 1 7
7 11 13 16 16 7 3 3 2 3 3 4 2 1 5 5 5 4 4 2 3 7 4 4 2 0 4 4 3 4 3 4 2 2 3 5 4 5 4 2 2 4 6 9
6 9 11 13 16 16 5 2 1 2 3 1 2 4 4 4 5 2 5 3 3 3 7 0 3 6 4 8 8 2 2 3 3 2 3 0 5 4 1 4 2 6 9 6
5 8 10 12 14 15 11 2 1 2 2 3 6 5 4 7 4 1 2 4 1 5 1 4 4 5 5 6 3 8 5 4 4 3 3 3 4 6 5 3 3 3 5 3
6 7 9 12 14 15 12 1 1 1 2 4 1 3 2 2 3 6 3 4 5 4 3 3 3 2 2 4 10 5 5 6 4 3 3 5 5 6 3 3 5 5 5 7
6 7 10 12 15 15 16 1 3 2 2 4 3 4 2 1 1 1 3 7 8 3 3 3 3 3 2 3 1 3 4 4 4 3 3 5 4 8 4 3 6 5 3 3
7 8 9 11 14 15 16 1 9 4 2 5 6 4 3 2 2 2 3 3 4 4 3 2 3 3 5 3 3 4 5 5 3 1 4 5 2 4 7 4 4 6 4 1
7 7 9 11 13 15 14 2 6 9 3 6 8 19 23 19 7 4 3 3 3 4 3 0 2 1 1 4 2 1 2 5 4 6 4 3 3 5 1 3 4 2 3 4
8 9 10 11 13 15 15 9 10 4 2 5 3 6 11 16 31 26 3 3 3 3 4 3 1 1 3 3 4 3 3 4 1 2 4 2 2 6 5 6 5 3 3 4
9 10 11 13 14 14 14 10 7 4 2 2 6 8 12 11 12 30 35 5 4 5 2 2 2 2 2 2 2 3 4 4 4 4 5 2 8 9 7 6 8 7 2 4
12 11 12 14 15 15 15 12 2 10 1 2 5 19 7 5 10 26 25 11 5 2 2 2 2 2 3 1 1 3 5 6 5 5 4 4 6 5 8 11 7 8 6 5
13 13 13 14 16 15 5 1 3 5 5 1 4 6 6 8 10 17 13 9 3 3 4 2 3 1 3 2 1 6 6 1 2 3 4 3 6 4 3 7 9 9 8 5
14 14 14 15 14 11 3 3 4 6 5 0 4 5 5 5 2 2 3 5 4 4 3 3 4 2 3 3 3 11 5 6 1 3 2 3 6 4 5 7 8 8 7 10
15 16 17 17 14 12 8 2 7 16 4 1 2 4 5 4 1 1 1 3 1 1 3 2 3 3 3 2 5 10 5 5 2 6 9 3 2 5 10 4 7 9 7 7
17 17 17 5 3 2 3 5 2 10 2 1 1 2 3 4 2 1 2 2 2 1 4 3 4 2 2 5 12 8 5 1 5 3 4 9 9 7 6 4 8 9 6 7
14 5 1 1 3 1 2 2 2 2 1 0 3 2 3 1 3 2 1 2 2 2 2 3 4 2 3 7 8 4 9 13 8 4 4 6 3 5 6 7 7 9 7 6
3 2 2 5 2 4 1 2 2 1 3 3 4 5 2 1 1 2 1 2 1 2 3 4 2 1 2 7 7 5 10 14 14 10 8 8 4 6 8 10 7 10 9 7
9 9 8 5 1 1 2 3 2 4 4 3 4 5 5 3 2 2 4 2 2 1 2 4 3 2 2 5 5 6 7 12 13 13 9 8 10 12 11 7 8 9 12 13
2 2 2 2 2 2 4 4 3 2 2 2 2 3 3 1 2 2 2 5 1 1 4 2 3 3 1 3 5 6 7 14 14 11 11 8 12 14 18 9 13 13 15 14
1 1 2 2 2 3 3 2 2 4 3 3 2 2 3 1 2 3 4 1 3 2 1 3 4 7 5 3 3 1 4 6 11 7 10 11 14 15 19 18 18 22 19 16
1 2 2 4 3 4 4 4 2 2 2 2 1 3 2 3 3 2 3 2 0 3 3 2 3 5 5 5 2 3 6 6 6 8 10 12 16 18 20 22 23 24 24 25
1 3 3 3 2 3 3 3 3 2 2 1 2 2 3 4 1 1 2 4 4 2 2 3 5 6 5 6 6 6 8 8 10 14 17 18 17 18 20 25 25 25 26 27
2 3 4 4 4 4 2 2 3 3 2 2 2 3 1 2 3 2 3 2 2 4 6 4 4 6 6 6 7 10 11 12 17 19 21 22 21 24 23 19 20 25 26 28
Wind_Direction
325 332 334 339 341 345 352 351 23 3 158 66 54 163 204 267 277 143 258 251 212 164 162 237 218 208 217 206 153 165 199 167 243 218 234 219 170 227 175 151 240 185 155 265
323 333 333 340 343 348 346 5 270 149 276 125 261 285 280 235 249 268 228 257 215 196 170 44 213 254 264 10 182 177 179 219 278 321 349 11 215 198 152 120 92 188 150 255
326 331 334 339 339 336 336 58 37 332 65 164 127 4 284 296 229 255 211 243 143 191 135 220 291 294 293 355 28 292 114 140 165 224 215 170 245 206 165 116 121 178 225 222
328 332 337 339 339 335 165 109 356 185 277 303 324 164 294 286 332 279 351 68 17 194 314 29 271 270 316 360 359 61 111 186 176 224 205 199 217 233 150 178 204 169 235 199
333 335 340 343 351 347 336 81 31 357 293 312 338 120 293 298 315 288 21 63 42 66 88 135 280 353 34 34 332 21 359 229 164 146 177 167 276 296 117 205 152 286 215 244
333 338 349 358 2 15 355 340 335 107 288 343 40 271 304 310 322 360 84 345 73 42 22 265 339 89 105 96 56 333 37 118 77 222 11 55 354 331 323 325 359 142 186 232
328 341 352 360 4 12 342 333 359 70 274 303 250 312 306 310 326 226 302 12 60 31 355 22 58 67 63 54 40 44 110 77 56 168 45 87 242 295 104 126 71 306 276 240
340 341 353 359 358 358 341 265 155 114 270 254 289 318 294 314 331 55 338 10 281 339 71 58 48 347 7 339 3 13 35 117 71 121 144 270 8 352 346 3 291 315 302 22
354 342 350 355 356 354 353 12 170 124 112 247 359 307 307 310 324 356 3 328 320 11 99 86 126 190 176 321 332 43 19 64 103 90 117 197 233 284 274 242 337 335 24 6
342 342 351 352 358 355 353 109 18 204 204 270 192 221 244 288 15 270 317 335 349 29 50 86 147 194 171 181 245 310 357 3 108 135 144 279 237 279 299 128 244 333 359 305
348 349 355 353 352 357 358 219 47 22 241 270 222 228 212 339 111 140 280 47 343 29 66 145 187 149 211 150 205 193 189 140 199 113 114 245 135 299 144 180 324 312 323 332
353 356 350 350 350 352 1 318 337 320 198 251 275 257 254 239 217 117 342 199 181 193 93 331 108 147 124 180 215 106 259 183 197 180 231 251 135 193 215 160 190 315 82 60
341 336 338 341 343 347 352 325 338 341 330 297 340 248 284 237 228 220 167 279 192 172 169 147 147 163 138 184 234 185 262 174 172 37 264 284 290 281 200 186 158 166 118 101
329 326 326 326 328 329 330 315 279 306 270 288 282 317 285 278 236 202 203 142 96 106 105 108 135 188 175 248 231 163 201 135 197 267 302 333 241 236 231 188 164 128 145 154
321 330 334 334 330 324 321 304 301 203 117 266 284 306 278 279 205 197 198 170 123 107 57 61 263 187 142 208 98 249 185 188 180 222 224 187 238 197 183 251 162 139 118 31
316 317 320 326 330 329 336 24 99 163 202 257 306 302 295 324 169 167 177 171 138 144 147 192 266 226 173 78 286 264 213 147 110 275 200 260 278 270 214 226 90 87 101 87
312 313 313 317 323 317 239 239 148 180 360 271 306 309 275 309 111 119 135 129 177 148 163 172 187 290 101 110 242 333 334 96 244 185 170 30 308 275 35 50 29 68 157 162
310 309 309 308 298 285 285 333 231 229 278 357 275 275 331 357 351 101 62 120 73 339 149 102 150 51 33 311 293 311 60 105 73 276 261 288 280 297 299 11 29 57 75 122
309 307 306 293 213 215 321 345 280 162 211 255 226 254 267 352 29 227 34 90 139 170 174 202 106 154 145 273 297 301 323 62 274 300 262 242 254 283 216 207 108 111 137 154
306 292 280 278 199 182 181 293 49 9 303 89 228 250 270 66 359 335 66 44 160 132 270 127 73 77 270 297 282 236 57 46 17 36 6 2 40 106 109 116 117 136 138 119
352 341 248 313 299 171 155 208 192 165 253 201 232 197 216 278 144 249 54 162 35 112 254 114 56 108 259 317 319 6 70 71 57 53 46 52 41 69 91 99 98 110 114 72
315 294 299 304 325 101 205 209 270 203 235 212 193 213 198 266 95 79 343 79 10 117 324 84 120 208 277 336 351 34 44 64 68 65 51 35 71 83 83 71 87 86 102 96
293 233 249 188 187 162 203 188 234 260 246 264 301 252 188 29 84 85 80 45 314 9 40 132 177 138 144 309 331 34 74 86 73 49 48 49 54 59 78 73 80 84 76 71
280 280 330 219 186 259 204 230 237 256 251 307 241 265 177 191 104 144 102 209 82 69 136 223 168 185 164 220 312 359 68 61 89 95 76 67 70 69 84 84 84 82 74 85
292 290 230 220 257 267 262 273 276 265 285 335 52 32 48 19 90 39 111 124 230 199 223 176 138 143 155 175 175 102 75 77 68 71 87 79 80 75 64 69 79 85 80 74
261 238 275 251 270 318 322 333 315 310 299 168 61 80 55 36 7 73 48 137 207 216 167 125 122 124 129 131 115 104 96 94 96 91 94 89 88 89 87 80 77 77 80 73
270 249 228 253 258 256 266 254 274 324 49 70 65 65 62 54 36 51 15 23 277 140 122 110 107 131 134 119 107 107 92 87 93 94 96 96 99 96 84 73 74 82 81 80